• în Republica Moldova
  • Lista ţărilor
  • Pe 7 zile
  • Temperatura apei
  • Hartă satelitară
  • Meteo pe hartă
  • Widget-uri
  • user-avatar
    Intrare

    Meteo pe oră la Perth

    Astăzi, 19 Ianuarie, Vineri

    Timp Temperatura Precipitaţii Vânt Presiune Umiditate
    00:00 +22°C° 0 mm 5 m/s 759 mmHg 59%
    01:00 +21°C° 0 mm 6 m/s 759 mmHg 62%
    02:00 +20°C° 0 mm 6 m/s 760 mmHg 66%
    03:00 +19°C° 0 mm 6 m/s 760 mmHg 67%
    04:00 +19°C° 0 mm 6 m/s 760 mmHg 69%
    05:00 +17°C° 0 mm 6 m/s 760 mmHg 71%
    06:00 +19°C° 0 mm 6 m/s 760 mmHg 68%
    07:00 +20°C° 0 mm 6 m/s 760 mmHg 65%
    08:00 +20°C° 0 mm 6 m/s 761 mmHg 59%
    09:00 +22°C° 0 mm 5 m/s 761 mmHg 53%
    10:00 +25°C° 0 mm 5 m/s 760 mmHg 46%
    11:00 +27°C° 0 mm 4 m/s 760 mmHg 40%
    12:00 +28°C° 0 mm 4 m/s 759 mmHg 37%
    13:00 +30°C° 0 mm 4 m/s 759 mmHg 34%
    14:00 +30°C° 0 mm 4 m/s 758 mmHg 36%
    15:00 +32°C° 0 mm 4 m/s 757 mmHg 36%
    16:00 +32°C° 0 mm 4 m/s 757 mmHg 36%
    17:00 +33°C° 0 mm 4 m/s 757 mmHg 35%
    18:00 +30°C° 0 mm 4 m/s 757 mmHg 39%
    19:00 +29°C° 0 mm 4 m/s 757 mmHg 43%
    20:00 +27°C° 0 mm 3 m/s 757 mmHg 48%
    21:00 +26°C° 0 mm 3 m/s 757 mmHg 48%
    22:00 +26°C° 0 mm 3 m/s 757 mmHg 47%
    23:00 +26°C° 0 mm 4 m/s 757 mmHg 47%

    Mâine, 20 Ianuarie, Sâmbătă

    Timp Temperatura Precipitaţii Vânt Presiune Umiditate
    00:00 +25°C° 0 mm 4 m/s 756 mmHg 48%
    01:00 +25°C° 0 mm 5 m/s 756 mmHg 49%
    02:00 +25°C° 0 mm 5 m/s 756 mmHg 49%
    03:00 +23°C° 0 mm 5 m/s 756 mmHg 51%
    04:00 +23°C° 0 mm 5 m/s 756 mmHg 54%
    05:00 +22°C° 0 mm 5 m/s 756 mmHg 56%
    06:00 +25°C° 0 mm 5 m/s 756 mmHg 54%
    07:00 +26°C° 0 mm 5 m/s 756 mmHg 52%
    08:00 +27°C° 0 mm 5 m/s 756 mmHg 51%
    09:00 +30°C° 0 mm 4 m/s 756 mmHg 45%
    10:00 +34°C° 0 mm 4 m/s 755 mmHg 40%
    11:00 +37°C° 0 mm 3 m/s 755 mmHg 35%
    12:00 +38°C° 0 mm 3 m/s 755 mmHg 33%
    13:00 +41°C° 0 mm 4 m/s 754 mmHg 31%
    14:00 +42°C° 0 mm 4 m/s 754 mmHg 28%
    15:00 +41°C° 0 mm 5 m/s 753 mmHg 31%
    16:00 +40°C° 0 mm 5 m/s 753 mmHg 33%
    17:00 +39°C° 0 mm 5 m/s 753 mmHg 36%
    18:00 +36°C° 0 mm 5 m/s 753 mmHg 40%
    19:00 +34°C° 0 mm 4 m/s 753 mmHg 45%
    20:00 +32°C° 0 mm 4 m/s 753 mmHg 50%
    21:00 +30°C° 0 mm 4 m/s 754 mmHg 52%
    22:00 +30°C° 0 mm 3 m/s 754 mmHg 55%
    23:00 +29°C° 0 mm 3 m/s 754 mmHg 57%

    Poimâine, 21 Ianuarie, Duminică

    Timp Temperatura Precipitaţii Vânt Presiune Umiditate
    00:00 +28°C° 0 mm 3 m/s 754 mmHg 59%
    01:00 +28°C° 0 mm 3 m/s 754 mmHg 60%
    02:00 +28°C° 0 mm 2 m/s 753 mmHg 62%
    03:00 +27°C° 0 mm 2 m/s 753 mmHg 63%
    04:00 +27°C° 0 mm 2 m/s 754 mmHg 65%
    05:00 +27°C° 0 mm 2 m/s 754 mmHg 66%
    06:00 +28°C° 0 mm 2 m/s 754 mmHg 62%
    07:00 +30°C° 0 mm 2 m/s 754 mmHg 58%
    08:00 +31°C° 0 mm 3 m/s 755 mmHg 54%
    09:00 +34°C° 0 mm 3 m/s 755 mmHg 49%
    10:00 +36°C° 0 mm 3 m/s 754 mmHg 44%
    11:00 +38°C° 0 mm 4 m/s 754 mmHg 39%
    12:00 +38°C° 0 mm 4 m/s 754 mmHg 38%
    13:00 +39°C° 0 mm 5 m/s 754 mmHg 37%
    14:00 +40°C° 0 mm 5 m/s 753 mmHg 36%
    15:00 +39°C° 0 mm 6 m/s 753 mmHg 38%
    16:00 +38°C° 0 mm 6 m/s 753 mmHg 40%
    17:00 +36°C° 0 mm 6 m/s 753 mmHg 43%
    18:00 +35°C° 0 mm 6 m/s 753 mmHg 48%
    19:00 +33°C° 0 mm 5 m/s 754 mmHg 53%
    20:00 +30°C° 0 mm 5 m/s 754 mmHg 59%
    21:00 +29°C° 0 mm 5 m/s 755 mmHg 60%
    22:00 +28°C° 0 mm 5 m/s 755 mmHg 61%
    23:00 +28°C° 0 mm 6 m/s 756 mmHg 63%

    22 Ianuarie, Luni

    Timp Temperatura Precipitaţii Vânt Presiune Umiditate
    00:00 +27°C° 0 mm 6 m/s 756 mmHg 65%
    01:00 +26°C° 0 mm 5 m/s 755 mmHg 67%
    02:00 +26°C° 0 mm 5 m/s 755 mmHg 69%
    03:00 +25°C° 0 mm 5 m/s 755 mmHg 70%
    04:00 +25°C° 0 mm 5 m/s 755 mmHg 72%
    05:00 +23°C° 0 mm 5 m/s 755 mmHg 73%
    06:00 +25°C° 0 mm 5 m/s 756 mmHg 70%
    07:00 +26°C° 0 mm 5 m/s 756 mmHg 67%
    08:00 +26°C° 0 mm 5 m/s 756 mmHg 64%
    09:00 +28°C° 0 mm 5 m/s 756 mmHg 60%
    10:00 +30°C° 0 mm 5 m/s 756 mmHg 55%
    11:00 +32°C° 0 mm 5 m/s 756 mmHg 51%
    12:00 +33°C° 0 mm 5 m/s 756 mmHg 48%
    13:00 +34°C° 0 mm 5 m/s 755 mmHg 45%
    14:00 +36°C° 0 mm 6 m/s 754 mmHg 42%
    15:00 +35°C° 0 mm 6 m/s 754 mmHg 42%
    16:00 +35°C° 0 mm 6 m/s 754 mmHg 43%
    17:00 +35°C° 0 mm 6 m/s 754 mmHg 43%
    18:00 +34°C° 0 mm 6 m/s 754 mmHg 46%
    19:00 +32°C° 0 mm 6 m/s 755 mmHg 49%
    20:00 +30°C° 0 mm 5 m/s 755 mmHg 52%
    21:00 +29°C° 0 mm 5 m/s 755 mmHg 53%
    22:00 +28°C° 0 mm 5 m/s 756 mmHg 54%
    23:00 +28°C° 0 mm 6 m/s 756 mmHg 56%

    23 Ianuarie, Marţi

    Timp Temperatura Precipitaţii Vânt Presiune Umiditate
    00:00 +26°C° 0 mm 6 m/s 756 mmHg 57%
    01:00 +24°C° 0 mm 6 m/s 756 mmHg 59%
    02:00 +23°C° 0 mm 6 m/s 756 mmHg 61%
    03:00 +22°C° 0 mm 6 m/s 756 mmHg 64%
    04:00 +22°C° 0 mm 5 m/s 756 mmHg 68%
    05:00 +21°C° 0 mm 5 m/s 756 mmHg 71%
    06:00 +22°C° 0 mm 5 m/s 756 mmHg 68%
    07:00 +23°C° 0 mm 4 m/s 757 mmHg 65%
    08:00 +25°C° 0 mm 4 m/s 757 mmHg 62%
    09:00 +27°C° 0 mm 4 m/s 757 mmHg 56%
    10:00 +30°C° 0 mm 4 m/s 756 mmHg 49%
    11:00 +33°C° 0 mm 4 m/s 756 mmHg 43%
    12:00 +34°C° 0 mm 5 m/s 756 mmHg 39%
    13:00 +35°C° 0 mm 5 m/s 755 mmHg 35%
    14:00 +36°C° 0 mm 6 m/s 754 mmHg 30%
    15:00 +36°C° 0 mm 6 m/s 754 mmHg 30%
    16:00 +36°C° 0 mm 7 m/s 754 mmHg 30%
    17:00 +35°C° 0 mm 7 m/s 754 mmHg 30%
    18:00 +34°C° 0 mm 7 m/s 754 mmHg 34%
    19:00 +32°C° 0 mm 6 m/s 755 mmHg 38%
    20:00 +29°C° 0 mm 6 m/s 755 mmHg 41%
    21:00 +29°C° 0 mm 6 m/s 755 mmHg 43%
    22:00 +28°C° 0 mm 5 m/s 756 mmHg 46%
    23:00 +27°C° 0 mm 5 m/s 756 mmHg 48%

    24 Ianuarie, Miercuri

    Timp Temperatura Precipitaţii Vânt Presiune Umiditate
    00:00 +26°C° 0 mm 5 m/s 755 mmHg 52%
    01:00 +25°C° 0 mm 5 m/s 755 mmHg 56%
    02:00 +23°C° 0 mm 6 m/s 755 mmHg 61%
    03:00 +23°C° 0 mm 5 m/s 755 mmHg 62%
    04:00 +22°C° 0 mm 5 m/s 755 mmHg 63%
    05:00 +21°C° 0 mm 5 m/s 755 mmHg 65%
    06:00 +22°C° 0 mm 5 m/s 756 mmHg 62%
    07:00 +23°C° 0 mm 5 m/s 756 mmHg 59%
    08:00 +23°C° 0 mm 5 m/s 756 mmHg 56%
    09:00 +27°C° 0 mm 4 m/s 756 mmHg 49%
    10:00 +30°C° 0 mm 4 m/s 756 mmHg 41%
    11:00 +33°C° 0 mm 4 m/s 755 mmHg 33%
    12:00 +34°C° 0 mm 4 m/s 755 mmHg 30%
    13:00 +35°C° 0 mm 5 m/s 754 mmHg 27%
    14:00 +37°C° 0 mm 5 m/s 753 mmHg 23%
    15:00 +36°C° 0 mm 6 m/s 753 mmHg 25%
    16:00 +35°C° 0 mm 6 m/s 753 mmHg 26%
    17:00 +35°C° 0 mm 7 m/s 752 mmHg 28%
    18:00 +33°C° 0 mm 6 m/s 753 mmHg 32%
    19:00 +30°C° 0 mm 6 m/s 753 mmHg 36%
    20:00 +28°C° 0 mm 6 m/s 753 mmHg 40%
    21:00 +28°C° 0 mm 6 m/s 754 mmHg 39%
    22:00 +27°C° 0 mm 6 m/s 754 mmHg 38%
    23:00 +27°C° 0 mm 6 m/s 754 mmHg 37%
    Arată mai mult